Time,TemperatureF,DewpointF,PressureIn,WindDirection,WindDirectionDegrees,WindSpeedMPH,WindSpeedGustMPH,Humidity,HourlyPrecipIn,Conditions,Clouds,dailyrainin,SoftwareType,DateUTC
2013-05-02 00:01:00,50.2,27.4,30.13,SE,135,3.1,3.1,41,0.00,,---,0.00,VWS V14.01,2013-05-02 06:01:00,
2013-05-02 00:06:00,50.4,27.0,30.13,SE,135,2.2,2.2,40,0.00,,---,0.00,VWS V14.01,2013-05-02 06:06:00,
2013-05-02 00:11:00,50.6,26.6,30.13,East,90,4.7,4.7,39,0.00,,---,0.00,VWS V14.01,2013-05-02 06:11:00,
2013-05-02 00:16:00,50.8,26.8,30.14,ESE,112,3.1,3.6,39,0.00,,---,0.00,VWS V14.01,2013-05-02 06:16:00,
2013-05-02 00:21:00,50.8,26.1,30.14,ENE,68,0.0,0.0,38,0.00,,---,0.00,VWS V14.01,2013-05-02 06:21:00,
2013-05-02 00:26:00,50.2,25.0,30.14,ESE,112,0.0,0.0,37,0.00,,---,0.00,VWS V14.01,2013-05-02 06:26:00,
2013-05-02 00:31:00,49.9,25.3,30.15,NE,45,3.4,3.4,38,0.00,,---,0.00,VWS V14.01,2013-05-02 06:31:00,
2013-05-02 00:36:00,50.6,26.0,30.15,NW,315,1.1,2.5,38,0.00,,---,0.00,VWS V14.01,2013-05-02 06:36:00,
2013-05-02 00:41:00,51.1,25.8,30.15,North,0,0.9,2.2,37,0.00,,---,0.00,VWS V14.01,2013-05-02 06:41:00,
2013-05-02 00:46:00,51.5,26.1,30.15,NW,315,3.1,3.1,37,0.00,,---,0.00,VWS V14.01,2013-05-02 06:46:00,
2013-05-02 00:51:00,51.3,26.6,30.16,West,270,1.8,1.8,38,0.00,,---,0.00,VWS V14.01,2013-05-02 06:51:00,
2013-05-02 00:56:00,50.8,27.4,30.16,NW,315,3.6,3.6,40,0.00,,---,0.00,VWS V14.01,2013-05-02 06:56:00,
2013-05-02 01:01:00,50.0,27.2,30.16,West,270,2.2,3.4,41,0.00,,---,0.00,VWS V14.01,2013-05-02 07:01:00,
2013-05-02 01:06:00,49.9,27.1,30.16,West,270,6.5,6.5,41,0.00,,---,0.00,VWS V14.01,2013-05-02 07:06:00,
2013-05-02 01:11:00,49.5,27.4,30.16,NW,315,3.1,3.1,42,0.00,,---,0.00,VWS V14.01,2013-05-02 07:11:00,
2013-05-02 01:16:00,49.3,27.2,30.17,WNW,292,1.6,1.6,42,0.00,,---,0.00,VWS V14.01,2013-05-02 07:16:00,
2013-05-02 01:21:00,49.0,27.5,30.17,West,270,1.8,1.8,43,0.00,,---,0.00,VWS V14.01,2013-05-02 07:21:00,
2013-05-02 01:26:00,48.8,27.9,30.16,West,270,3.4,3.4,44,0.00,,---,0.00,VWS V14.01,2013-05-02 07:26:00,
2013-05-02 01:31:00,48.2,27.3,30.17,WSW,248,1.1,2.5,44,0.00,,---,0.00,VWS V14.01,2013-05-02 07:31:00,
2013-05-02 01:36:00,47.9,27.6,30.17,NW,315,2.2,3.8,45,0.00,,---,0.00,VWS V14.01,2013-05-02 07:36:00,
2013-05-02 01:41:00,47.5,27.8,30.17,WNW,292,4.0,4.0,46,0.00,,---,0.00,VWS V14.01,2013-05-02 07:41:00,
2013-05-02 01:46:00,47.3,27.6,30.17,West,270,1.3,2.0,46,0.00,,---,0.00,VWS V14.01,2013-05-02 07:46:00,
2013-05-02 01:51:00,47.2,28.0,30.18,WSW,248,1.8,1.8,47,0.00,,---,0.00,VWS V14.01,2013-05-02 07:51:00,
2013-05-02 01:56:00,46.8,27.6,30.18,WSW,248,0.9,1.1,47,0.00,,---,0.00,VWS V14.01,2013-05-02 07:56:00,
2013-05-02 02:01:00,46.6,27.5,30.17,SSW,202,1.8,1.8,47,0.00,,---,0.00,VWS V14.01,2013-05-02 08:01:00,
2013-05-02 02:06:00,46.6,27.5,30.17,SW,225,0.7,1.1,47,0.00,,---,0.00,VWS V14.01,2013-05-02 08:06:00,
2013-05-02 02:11:00,46.4,27.3,30.17,SW,225,1.6,1.6,47,0.00,,---,0.00,VWS V14.01,2013-05-02 08:11:00,
2013-05-02 02:16:00,46.4,27.8,30.17,SSW,202,3.1,3.1,48,0.00,,---,0.00,VWS V14.01,2013-05-02 08:16:00,
2013-05-02 02:21:00,46.3,27.7,30.17,SW,225,0.7,0.7,48,0.00,,---,0.00,VWS V14.01,2013-05-02 08:21:00,
2013-05-02 02:26:00,46.1,27.5,30.17,South,180,0.9,0.9,48,0.00,,---,0.00,VWS V14.01,2013-05-02 08:26:00,
2013-05-02 02:31:00,45.9,27.3,30.17,SSW,202,0.4,0.4,48,0.00,,---,0.00,VWS V14.01,2013-05-02 08:31:00,
2013-05-02 02:36:00,45.7,27.1,30.17,SSW,202,0.2,0.2,48,0.00,,---,0.00,VWS V14.01,2013-05-02 08:36:00,
2013-05-02 02:41:00,45.7,27.1,30.18,SSW,202,0.2,0.2,48,0.00,,---,0.00,VWS V14.01,2013-05-02 08:41:00,
2013-05-02 02:46:00,45.5,27.5,30.18,WSW,248,3.4,3.4,49,0.00,,---,0.00,VWS V14.01,2013-05-02 08:46:00,
2013-05-02 02:51:00,45.4,27.9,30.18,SW,225,0.7,2.5,50,0.00,,---,0.00,VWS V14.01,2013-05-02 08:51:00,
2013-05-02 02:56:00,45.0,27.5,30.19,West,270,3.4,3.4,50,0.00,,---,0.00,VWS V14.01,2013-05-02 08:56:00,
2013-05-02 03:01:00,45.0,27.5,30.19,WSW,248,2.2,2.2,50,0.00,,---,0.00,VWS V14.01,2013-05-02 09:01:00,
2013-05-02 03:06:00,44.6,27.6,30.19,WSW,248,2.7,2.7,51,0.00,,---,0.00,VWS V14.01,2013-05-02 09:06:00,
2013-05-02 03:11:00,44.5,27.5,30.19,SW,225,2.7,4.0,51,0.00,,---,0.00,VWS V14.01,2013-05-02 09:11:00,
2013-05-02 03:16:00,44.3,27.3,30.19,SW,225,2.9,2.9,51,0.00,,---,0.00,VWS V14.01,2013-05-02 09:16:00,
2013-05-02 03:21:00,43.9,27.4,30.19,WSW,248,2.2,2.2,52,0.00,,---,0.00,VWS V14.01,2013-05-02 09:21:00,
2013-05-02 03:26:00,43.6,27.1,30.20,WSW,248,2.9,2.9,52,0.00,,---,0.00,VWS V14.01,2013-05-02 09:26:00,
2013-05-02 03:31:00,43.6,26.7,30.20,West,270,0.7,0.7,51,0.00,,---,0.00,VWS V14.01,2013-05-02 09:31:00,
2013-05-02 03:36:00,43.4,26.5,30.20,North,0,1.6,1.6,51,0.00,,---,0.00,VWS V14.01,2013-05-02 09:36:00,
2013-05-02 03:41:00,43.4,26.5,30.20,WNW,292,3.1,3.1,51,0.00,,---,0.00,VWS V14.01,2013-05-02 09:41:00,
2013-05-02 03:46:00,43.4,26.0,30.20,West,270,4.7,4.7,50,0.00,,---,0.00,VWS V14.01,2013-05-02 09:46:00,
2013-05-02 03:51:00,43.0,25.6,30.21,WNW,292,2.5,2.5,50,0.00,,---,0.00,VWS V14.01,2013-05-02 09:51:00,
2013-05-02 03:56:00,42.8,25.5,30.21,West,270,1.6,1.6,50,0.00,,---,0.00,VWS V14.01,2013-05-02 09:56:00,
2013-05-02 04:01:00,42.5,26.1,30.22,WSW,248,5.4,5.4,52,0.00,,---,0.00,VWS V14.01,2013-05-02 10:01:00,
2013-05-02 04:06:00,42.3,25.9,30.22,West,270,4.7,4.7,52,0.00,,---,0.00,VWS V14.01,2013-05-02 10:06:00,
2013-05-02 04:11:00,42.1,25.8,30.22,NW,315,3.4,3.4,52,0.00,,---,0.00,VWS V14.01,2013-05-02 10:11:00,
2013-05-02 04:16:00,41.9,25.6,30.23,WSW,248,2.5,2.5,52,0.00,,---,0.00,VWS V14.01,2013-05-02 10:16:00,
2013-05-02 04:21:00,41.6,25.3,30.23,NW,315,1.8,1.8,52,0.00,,---,0.00,VWS V14.01,2013-05-02 10:21:00,
2013-05-02 04:26:00,41.4,25.6,30.23,West,270,0.7,0.7,53,0.00,,---,0.00,VWS V14.01,2013-05-02 10:26:00,
2013-05-02 04:31:00,41.0,24.3,30.23,WSW,248,0.0,0.0,51,0.00,,---,0.00,VWS V14.01,2013-05-02 10:31:00,
2013-05-02 04:36:00,40.7,24.9,30.23,SW,225,0.0,0.0,53,0.00,,---,0.00,VWS V14.01,2013-05-02 10:36:00,
2013-05-02 04:41:00,40.5,25.6,30.24,WSW,248,0.7,0.7,55,0.00,,---,0.00,VWS V14.01,2013-05-02 10:41:00,
2013-05-02 04:46:00,40.3,25.4,30.24,SSW,202,0.9,0.9,55,0.00,,---,0.00,VWS V14.01,2013-05-02 10:46:00,
2013-05-02 04:51:00,40.3,25.4,30.23,South,180,1.1,1.3,55,0.00,,---,0.00,VWS V14.01,2013-05-02 10:51:00,
2013-05-02 04:56:00,40.3,23.6,30.24,South,180,2.9,2.9,51,0.00,,---,0.00,VWS V14.01,2013-05-02 10:56:00,
2013-05-02 05:01:00,40.5,23.3,30.24,SW,225,4.0,4.0,50,0.00,,---,0.00,VWS V14.01,2013-05-02 11:01:00,
2013-05-02 05:06:00,40.3,22.2,30.24,South,180,2.0,2.0,48,0.00,,---,0.00,VWS V14.01,2013-05-02 11:06:00,
2013-05-02 05:11:00,40.0,22.4,30.24,SE,135,1.8,1.8,49,0.00,,---,0.00,VWS V14.01,2013-05-02 11:11:00,
2013-05-02 05:16:00,40.0,22.4,30.24,ESE,112,1.1,1.1,49,0.00,,---,0.00,VWS V14.01,2013-05-02 11:16:00,
2013-05-02 05:21:00,39.8,21.7,30.24,SE,135,1.1,1.1,48,0.00,,---,0.00,VWS V14.01,2013-05-02 11:21:00,
2013-05-02 05:26:00,39.6,21.5,30.24,ESE,112,0.0,0.4,48,0.00,,---,0.00,VWS V14.01,2013-05-02 11:26:00,
2013-05-02 05:31:00,39.4,20.9,30.24,ESE,112,0.2,0.4,47,0.00,,---,0.00,VWS V14.01,2013-05-02 11:31:00,
2013-05-02 05:36:00,39.1,20.6,30.24,NNE,22,0.0,0.0,47,0.00,,---,0.00,VWS V14.01,2013-05-02 11:36:00,
2013-05-02 05:41:00,38.7,20.7,30.24,NE,45,0.0,0.0,48,0.00,,---,0.00,VWS V14.01,2013-05-02 11:41:00,
2013-05-02 05:46:00,38.5,20.5,30.24,NE,45,0.9,1.1,48,0.00,,---,0.00,VWS V14.01,2013-05-02 11:46:00,
2013-05-02 05:51:00,38.3,21.3,30.24,NNE,22,1.8,2.2,50,0.00,,---,0.00,VWS V14.01,2013-05-02 11:51:00,
2013-05-02 05:56:00,38.5,22.0,30.25,North,0,0.4,2.0,51,0.00,,---,0.00,VWS V14.01,2013-05-02 11:56:00,
2013-05-02 06:01:00,38.5,22.4,30.25,NNE,22,0.4,2.2,52,0.00,,---,0.00,VWS V14.01,2013-05-02 12:01:00,
2013-05-02 06:06:00,38.5,23.3,30.26,NNW,338,0.2,1.3,54,0.00,,---,0.00,VWS V14.01,2013-05-02 12:06:00,
2013-05-02 06:11:00,38.5,23.8,30.26,WNW,292,2.2,2.9,55,0.00,,---,0.00,VWS V14.01,2013-05-02 12:11:00,
2013-05-02 06:16:00,38.5,24.2,30.27,West,270,0.4,0.9,56,0.00,,---,0.00,VWS V14.01,2013-05-02 12:16:00,
2013-05-02 06:21:00,38.3,23.6,30.27,SW,225,0.7,2.0,55,0.00,,---,0.00,VWS V14.01,2013-05-02 12:21:00,
2013-05-02 06:26:00,38.3,23.6,30.27,SSW,202,4.7,5.4,55,0.00,,---,0.00,VWS V14.01,2013-05-02 12:26:00,
2013-05-02 06:31:00,38.5,22.4,30.27,SSE,158,0.4,1.1,52,0.00,,---,0.00,VWS V14.01,2013-05-02 12:31:00,
2013-05-02 06:36:00,38.5,22.0,30.28,SSW,202,5.4,5.4,51,0.00,,---,0.00,VWS V14.01,2013-05-02 12:36:00,
2013-05-02 06:41:00,38.9,21.9,30.28,SSW,202,2.5,4.5,50,0.00,,---,0.00,VWS V14.01,2013-05-02 12:41:00,
2013-05-02 06:46:00,38.9,19.4,30.29,South,180,1.8,3.1,45,0.00,,---,0.00,VWS V14.01,2013-05-02 12:46:00,
2013-05-02 06:51:00,39.2,18.0,30.29,SE,135,2.0,2.0,42,0.00,,---,0.00,VWS V14.01,2013-05-02 12:51:00,
2013-05-02 06:56:00,39.6,17.3,30.29,ESE,112,2.5,2.9,40,0.00,,---,0.00,VWS V14.01,2013-05-02 12:56:00,
2013-05-02 07:01:00,40.0,17.6,30.29,ESE,112,0.0,1.6,40,0.00,,---,0.00,VWS V14.01,2013-05-02 13:01:00,
2013-05-02 07:06:00,40.7,18.3,30.29,ESE,112,0.2,0.2,40,0.00,,---,0.00,VWS V14.01,2013-05-02 13:06:00,
2013-05-02 07:11:00,41.8,18.7,30.30,WNW,292,1.1,1.1,39,0.00,,---,0.00,VWS V14.01,2013-05-02 13:11:00,
2013-05-02 07:16:00,41.9,17.5,30.30,WSW,248,2.0,2.0,37,0.00,,---,0.00,VWS V14.01,2013-05-02 13:16:00,
2013-05-02 07:21:00,41.9,17.5,30.30,SW,225,4.5,4.5,37,0.00,,---,0.00,VWS V14.01,2013-05-02 13:21:00,
2013-05-02 07:26:00,42.1,17.7,30.30,SSE,158,0.7,2.0,37,0.00,,---,0.00,VWS V14.01,2013-05-02 13:26:00,
2013-05-02 07:31:00,42.8,18.4,30.31,ESE,112,1.6,1.6,37,0.00,,---,0.00,VWS V14.01,2013-05-02 13:31:00,
2013-05-02 07:36:00,42.7,18.3,30.32,South,180,1.1,2.5,37,0.00,,---,0.00,VWS V14.01,2013-05-02 13:36:00,
2013-05-02 07:41:00,43.0,18.5,30.32,SSW,202,0.7,1.1,37,0.00,,---,0.00,VWS V14.01,2013-05-02 13:41:00,
2013-05-02 07:46:00,43.4,18.2,30.32,SW,225,0.4,1.3,36,0.00,,---,0.00,VWS V14.01,2013-05-02 13:46:00,
2013-05-02 07:50:00,43.6,18.4,30.32,SSW,202,4.9,5.6,36,0.00,,---,0.00,VWS V14.01,2013-05-02 13:50:00,
2013-05-02 07:55:00,44.1,18.9,30.32,NNW,338,4.0,6.0,36,0.00,,---,0.00,VWS V14.01,2013-05-02 13:55:00,
2013-05-02 08:00:00,43.9,20.0,30.32,North,0,6.3,6.5,38,0.00,,---,0.00,VWS V14.01,2013-05-02 14:00:00,
2013-05-02 08:05:00,44.1,19.5,30.33,NE,45,0.4,4.3,37,0.00,,---,0.00,VWS V14.01,2013-05-02 14:05:00,
2013-05-02 08:10:00,45.7,21.6,30.33,NNE,22,2.5,2.5,38,0.00,,---,0.00,VWS V14.01,2013-05-02 14:10:00,
2013-05-02 08:15:00,46.8,20.6,30.33,North,0,0.4,4.0,35,0.00,,---,0.00,VWS V14.01,2013-05-02 14:15:00,
2013-05-02 08:20:00,47.2,22.3,30.33,WSW,248,0.0,1.3,37,0.00,,---,0.00,VWS V14.01,2013-05-02 14:20:00,
2013-05-02 08:25:00,47.9,22.2,30.33,NNE,22,3.4,3.4,36,0.00,,---,0.00,VWS V14.01,2013-05-02 14:25:00,
2013-05-02 08:30:00,47.0,20.8,30.33,West,270,0.4,1.1,35,0.00,,---,0.00,VWS V14.01,2013-05-02 14:30:00,
2013-05-02 08:35:00,47.9,21.6,30.33,NW,315,1.3,4.0,35,0.00,,---,0.00,VWS V14.01,2013-05-02 14:35:00,
2013-05-02 08:40:00,48.1,21.1,30.33,NW,315,1.6,3.8,34,0.00,,---,0.00,VWS V14.01,2013-05-02 14:40:00,
2013-05-02 08:45:00,48.6,21.5,30.33,NNE,22,0.7,1.6,34,0.00,,---,0.00,VWS V14.01,2013-05-02 14:45:00,
2013-05-02 08:50:00,50.0,21.3,30.34,NE,45,1.1,1.1,32,0.00,,---,0.00,VWS V14.01,2013-05-02 14:50:00,
2013-05-02 08:55:00,49.3,20.7,30.34,ESE,112,3.4,3.4,32,0.00,,---,0.00,VWS V14.01,2013-05-02 14:55:00,
2013-05-02 09:00:00,48.6,20.1,30.34,SE,135,1.1,1.1,32,0.00,,---,0.00,VWS V14.01,2013-05-02 15:00:00,
2013-05-02 09:05:00,48.6,19.4,30.34,SE,135,3.6,3.6,31,0.00,,---,0.00,VWS V14.01,2013-05-02 15:05:00,
2013-05-02 09:10:00,47.9,18.7,30.35,SSE,158,2.5,3.6,31,0.00,,---,0.00,VWS V14.01,2013-05-02 15:10:00,
2013-05-02 09:15:00,47.9,18.7,30.35,SE,135,0.7,3.1,31,0.00,,---,0.00,VWS V14.01,2013-05-02 15:15:00,
2013-05-02 09:20:00,48.2,19.0,30.35,SE,135,1.1,2.5,31,0.00,,---,0.00,VWS V14.01,2013-05-02 15:20:00,
2013-05-02 09:25:00,48.6,19.4,30.35,SSE,158,2.2,4.0,31,0.00,,---,0.00,VWS V14.01,2013-05-02 15:25:00,
2013-05-02 09:30:00,48.4,18.4,30.35,South,180,2.5,3.6,30,0.00,,---,0.00,VWS V14.01,2013-05-02 15:30:00,
2013-05-02 09:35:00,48.1,18.1,30.35,SSW,202,2.9,4.3,30,0.00,,---,0.00,VWS V14.01,2013-05-02 15:35:00,
2013-05-02 09:40:00,48.1,18.1,30.35,SSE,158,1.8,3.6,30,0.00,,---,0.00,VWS V14.01,2013-05-02 15:40:00,
2013-05-02 09:45:00,48.1,18.1,30.35,SE,135,3.8,6.3,30,0.00,,---,0.00,VWS V14.01,2013-05-02 15:45:00,
2013-05-02 09:50:00,48.2,19.0,30.35,SSE,158,2.2,2.5,31,0.00,,---,0.00,VWS V14.01,2013-05-02 15:50:00,
2013-05-02 09:55:00,48.2,18.2,30.35,ESE,112,4.0,5.4,30,0.00,,---,0.00,VWS V14.01,2013-05-02 15:55:00,
2013-05-02 10:00:00,48.2,17.5,30.35,SE,135,2.5,6.0,29,0.00,,---,0.00,VWS V14.01,2013-05-02 16:00:00,
2013-05-02 10:05:00,48.6,17.8,30.35,SE,135,4.5,8.5,29,0.00,,---,0.00,VWS V14.01,2013-05-02 16:05:00,
2013-05-02 10:10:00,48.6,17.8,30.35,SE,135,4.7,6.0,29,0.00,,---,0.00,VWS V14.01,2013-05-02 16:10:00,
2013-05-02 10:15:00,48.6,17.8,30.35,NE,45,6.3,6.3,29,0.00,,---,0.00,VWS V14.01,2013-05-02 16:15:00,
2013-05-02 10:20:00,48.2,17.5,30.36,SE,135,2.0,5.1,29,0.00,,---,0.00,VWS V14.01,2013-05-02 16:20:00,
2013-05-02 10:25:00,48.8,18.0,30.36,SSE,158,1.1,2.0,29,0.00,,---,0.00,VWS V14.01,2013-05-02 16:25:00,
2013-05-02 10:30:00,49.0,18.1,30.36,SSE,158,1.3,4.0,29,0.00,,---,0.00,VWS V14.01,2013-05-02 16:30:00,
2013-05-02 10:35:00,50.2,17.5,30.36,ESE,112,4.0,5.1,27,0.00,,---,0.00,VWS V14.01,2013-05-02 16:35:00,
2013-05-02 10:40:00,49.9,17.3,30.36,South,180,4.0,4.0,27,0.00,,---,0.00,VWS V14.01,2013-05-02 16:40:00,
2013-05-02 10:45:00,50.4,17.7,30.36,ESE,112,5.4,5.4,27,0.00,,---,0.00,VWS V14.01,2013-05-02 16:45:00,
2013-05-02 10:50:00,50.8,18.0,30.35,SE,135,1.1,3.4,27,0.00,,---,0.00,VWS V14.01,2013-05-02 16:50:00,
2013-05-02 10:55:00,50.9,18.1,30.35,ESE,112,2.7,4.9,27,0.00,,---,0.00,VWS V14.01,2013-05-02 16:55:00,
2013-05-02 11:00:00,51.5,18.6,30.35,ENE,68,4.5,4.5,27,0.00,,---,0.00,VWS V14.01,2013-05-02 17:00:00,
2013-05-02 11:05:00,51.5,18.6,30.35,East,90,6.3,7.2,27,0.00,,---,0.00,VWS V14.01,2013-05-02 17:05:00,
2013-05-02 11:10:00,52.0,19.1,30.35,NE,45,3.1,3.1,27,0.00,,---,0.00,VWS V14.01,2013-05-02 17:10:00,
2013-05-02 11:15:00,52.2,16.5,30.35,ESE,112,1.8,5.6,24,0.00,,---,0.00,VWS V14.01,2013-05-02 17:15:00,
2013-05-02 11:20:00,51.7,17.0,30.35,ESE,112,7.2,8.9,25,0.00,,---,0.00,VWS V14.01,2013-05-02 17:20:00,
2013-05-02 11:25:00,51.7,17.0,30.35,East,90,8.5,8.5,25,0.00,,---,0.00,VWS V14.01,2013-05-02 17:25:00,
2013-05-02 11:30:00,52.4,15.7,30.35,SE,135,1.3,1.3,23,0.00,,---,0.00,VWS V14.01,2013-05-02 17:30:00,
2013-05-02 11:35:00,52.0,15.4,30.34,SE,135,2.5,4.0,23,0.00,,---,0.00,VWS V14.01,2013-05-02 17:35:00,
2013-05-02 11:40:00,52.4,15.7,30.34,ESE,112,6.3,7.4,23,0.00,,---,0.00,VWS V14.01,2013-05-02 17:40:00,
2013-05-02 11:45:00,52.2,17.5,30.35,ENE,68,6.7,6.7,25,0.00,,---,0.00,VWS V14.01,2013-05-02 17:45:00,
2013-05-02 11:50:00,53.1,17.3,30.35,ENE,68,3.1,3.4,24,0.00,,---,0.00,VWS V14.01,2013-05-02 17:50:00,
2013-05-02 11:55:00,54.0,15.0,30.34,SSW,202,3.4,3.4,21,0.00,,---,0.00,VWS V14.01,2013-05-02 17:55:00,
2013-05-02 12:00:00,54.2,15.1,30.35,SE,135,2.5,5.4,21,0.00,,---,0.00,VWS V14.01,2013-05-02 18:00:00,
2013-05-02 12:05:00,54.4,15.3,30.34,SSE,158,4.0,4.0,21,0.00,,---,0.00,VWS V14.01,2013-05-02 18:05:00,
2013-05-02 12:10:00,54.9,16.8,30.34,NE,45,10.3,11.2,22,0.00,,---,0.00,VWS V14.01,2013-05-02 18:10:00,
2013-05-02 12:15:00,53.6,14.6,30.34,SSE,158,5.4,5.4,21,0.00,,---,0.00,VWS V14.01,2013-05-02 18:15:00,
2013-05-02 12:20:00,53.6,14.6,30.34,East,90,4.0,5.8,21,0.00,,---,0.00,VWS V14.01,2013-05-02 18:20:00,
2013-05-02 12:25:00,53.8,14.8,30.34,WNW,292,0.7,0.7,21,0.00,,---,0.00,VWS V14.01,2013-05-02 18:25:00,
2013-05-02 12:30:00,52.4,14.7,30.33,East,90,0.7,1.1,22,0.00,,---,0.00,VWS V14.01,2013-05-02 18:30:00,
2013-05-02 12:35:00,53.5,16.6,30.33,SE,135,2.7,3.4,23,0.00,,---,0.00,VWS V14.01,2013-05-02 18:35:00,
2013-05-02 12:40:00,54.4,15.3,30.33,ENE,68,2.0,3.4,21,0.00,,---,0.00,VWS V14.01,2013-05-02 18:40:00,
2013-05-02 12:45:00,55.1,15.9,30.33,NE,45,1.8,2.0,21,0.00,,---,0.00,VWS V14.01,2013-05-02 18:45:00,
2013-05-02 12:50:00,55.6,16.3,30.33,West,270,0.2,1.1,21,0.00,,---,0.00,VWS V14.01,2013-05-02 18:50:00,
2013-05-02 12:55:00,56.2,15.7,30.33,SSE,158,2.5,2.5,20,0.00,,---,0.00,VWS V14.01,2013-05-02 18:55:00,
2013-05-02 13:00:00,56.7,13.7,30.32,ESE,112,3.4,3.4,18,0.00,,---,0.00,VWS V14.01,2013-05-02 19:00:00,
2013-05-02 13:05:00,56.2,13.3,30.32,SE,135,2.5,3.4,18,0.00,,---,0.00,VWS V14.01,2013-05-02 19:05:00,
2013-05-02 13:10:00,54.9,14.6,30.32,South,180,4.7,4.7,20,0.00,,---,0.00,VWS V14.01,2013-05-02 19:10:00,
2013-05-02 13:15:00,54.4,14.2,30.32,SE,135,1.8,1.8,20,0.00,,---,0.00,VWS V14.01,2013-05-02 19:15:00,
2013-05-02 13:20:00,54.7,14.4,30.32,South,180,1.1,2.7,20,0.00,,---,0.00,VWS V14.01,2013-05-02 19:20:00,
2013-05-02 13:25:00,54.9,14.6,30.32,SE,135,5.8,5.8,20,0.00,,---,0.00,VWS V14.01,2013-05-02 19:25:00,
2013-05-02 13:30:00,54.5,14.3,30.32,NE,45,0.7,2.0,20,0.00,,---,0.00,VWS V14.01,2013-05-02 19:30:00,
2013-05-02 13:35:00,55.1,12.4,30.32,SSW,202,1.1,1.1,18,0.00,,---,0.00,VWS V14.01,2013-05-02 19:35:00,
2013-05-02 13:40:00,54.7,14.4,30.32,WSW,248,5.1,5.1,20,0.00,,---,0.00,VWS V14.01,2013-05-02 19:40:00,
2013-05-02 13:45:00,54.4,13.0,30.32,West,270,6.3,6.3,19,0.00,,---,0.00,VWS V14.01,2013-05-02 19:45:00,
2013-05-02 13:50:00,54.7,14.4,30.32,West,270,3.4,5.6,20,0.00,,---,0.00,VWS V14.01,2013-05-02 19:50:00,
2013-05-02 13:55:00,54.5,14.3,30.31,WSW,248,1.8,3.4,20,0.00,,---,0.00,VWS V14.01,2013-05-02 19:55:00,
2013-05-02 14:00:00,54.9,14.6,30.31,South,180,1.1,1.3,20,0.00,,---,0.00,VWS V14.01,2013-05-02 20:00:00,
2013-05-02 14:05:00,56.3,14.6,30.31,SSE,158,1.1,2.2,19,0.00,,---,0.00,VWS V14.01,2013-05-02 20:05:00,
2013-05-02 14:10:00,57.1,14.0,30.31,SSE,158,1.3,2.5,18,0.00,,---,0.00,VWS V14.01,2013-05-02 20:10:00,
2013-05-02 14:15:00,57.1,12.7,30.31,West,270,3.8,6.9,17,0.00,,---,0.00,VWS V14.01,2013-05-02 20:15:00,
2013-05-02 14:20:00,55.8,12.9,30.31,SW,225,3.8,4.5,18,0.00,,---,0.00,VWS V14.01,2013-05-02 20:20:00,
2013-05-02 14:25:00,56.3,13.4,30.31,WNW,292,0.7,1.6,18,0.00,,---,0.00,VWS V14.01,2013-05-02 20:25:00,
2013-05-02 14:30:00,57.2,12.8,30.30,SW,225,0.9,0.9,17,0.00,,---,0.00,VWS V14.01,2013-05-02 20:30:00,
2013-05-02 14:35:00,57.2,12.8,30.31,WSW,248,0.9,1.1,17,0.00,,---,0.00,VWS V14.01,2013-05-02 20:35:00,
2013-05-02 14:40:00,56.7,13.7,30.30,WNW,292,2.7,2.7,18,0.00,,---,0.00,VWS V14.01,2013-05-02 20:40:00,
2013-05-02 14:45:00,56.5,12.2,30.30,NW,315,4.9,6.3,17,0.00,,---,0.00,VWS V14.01,2013-05-02 20:45:00,
2013-05-02 14:50:00,56.2,12.0,30.30,North,0,2.5,6.5,17,0.00,,---,0.00,VWS V14.01,2013-05-02 20:50:00,
2013-05-02 14:55:00,55.8,12.9,30.30,SSW,202,0.2,0.2,18,0.00,,---,0.00,VWS V14.01,2013-05-02 20:55:00,
2013-05-02 15:00:00,56.7,12.4,30.30,East,90,0.9,1.6,17,0.00,,---,0.00,VWS V14.01,2013-05-02 21:00:00,
2013-05-02 15:05:00,58.3,13.7,30.30,SSW,202,6.0,6.0,17,0.00,,---,0.00,VWS V14.01,2013-05-02 21:05:00,
2013-05-02 15:10:00,57.4,13.0,30.29,SSW,202,5.6,5.6,17,0.00,,---,0.00,VWS V14.01,2013-05-02 21:10:00,
2013-05-02 15:15:00,57.2,12.8,30.29,SSW,202,3.1,3.1,17,0.00,,---,0.00,VWS V14.01,2013-05-02 21:15:00,
2013-05-02 15:20:00,57.6,13.1,30.29,SSW,202,4.5,5.6,17,0.00,,---,0.00,VWS V14.01,2013-05-02 21:20:00,
2013-05-02 15:25:00,57.2,12.8,30.29,South,180,2.5,2.5,17,0.00,,---,0.00,VWS V14.01,2013-05-02 21:25:00,
2013-05-02 15:30:00,58.0,13.4,30.29,West,270,2.7,4.7,17,0.00,,---,0.00,VWS V14.01,2013-05-02 21:30:00,
2013-05-02 15:35:00,58.3,13.7,30.29,WNW,292,4.0,4.0,17,0.00,,---,0.00,VWS V14.01,2013-05-02 21:35:00,
2013-05-02 15:40:00,58.9,14.2,30.29,SW,225,0.9,0.9,17,0.00,,---,0.00,VWS V14.01,2013-05-02 21:40:00,
2013-05-02 15:45:00,60.8,14.4,30.28,ENE,68,1.1,1.1,16,0.00,,---,0.00,VWS V14.01,2013-05-02 21:45:00,
2013-05-02 15:50:00,61.6,15.0,30.28,NW,315,2.2,2.2,16,0.00,,---,0.00,VWS V14.01,2013-05-02 21:50:00,
2013-05-02 15:55:00,61.7,15.1,30.28,NNE,22,0.7,0.7,16,0.00,,---,0.00,VWS V14.01,2013-05-02 21:55:00,
2013-05-02 16:00:00,61.2,14.7,30.28,WSW,248,3.6,3.6,16,0.00,,---,0.00,VWS V14.01,2013-05-02 22:00:00,
2013-05-02 16:05:00,60.3,13.9,30.27,NW,315,4.9,4.9,16,0.00,,---,0.00,VWS V14.01,2013-05-02 22:05:00,
2013-05-02 16:10:00,60.5,14.1,30.27,West,270,4.0,4.0,16,0.00,,---,0.00,VWS V14.01,2013-05-02 22:10:00,
2013-05-02 16:15:00,61.6,15.0,30.27,WSW,248,3.6,3.6,16,0.00,,---,0.00,VWS V14.01,2013-05-02 22:15:00,
2013-05-02 16:20:00,62.3,14.1,30.27,SW,225,6.3,6.3,15,0.00,,---,0.00,VWS V14.01,2013-05-02 22:20:00,
2013-05-02 16:25:00,61.2,14.7,30.27,West,270,3.4,4.5,16,0.00,,---,0.00,VWS V14.01,2013-05-02 22:25:00,
2013-05-02 16:30:00,60.8,14.4,30.27,West,270,3.8,3.8,16,0.00,,---,0.00,VWS V14.01,2013-05-02 22:30:00,
2013-05-02 16:35:00,61.0,14.5,30.27,WNW,292,1.3,1.8,16,0.00,,---,0.00,VWS V14.01,2013-05-02 22:35:00,
2013-05-02 16:40:00,61.0,14.5,30.27,SSW,202,2.9,2.9,16,0.00,,---,0.00,VWS V14.01,2013-05-02 22:40:00,
2013-05-02 16:45:00,60.8,14.4,30.27,SW,225,2.9,2.9,16,0.00,,---,0.00,VWS V14.01,2013-05-02 22:45:00,
2013-05-02 16:50:00,61.2,13.2,30.26,SSW,202,3.4,3.4,15,0.00,,---,0.00,VWS V14.01,2013-05-02 22:50:00,
2013-05-02 16:55:00,62.5,14.2,30.26,South,180,6.5,6.5,15,0.00,,---,0.00,VWS V14.01,2013-05-02 22:55:00,
2013-05-02 17:00:00,62.5,14.2,30.26,South,180,2.5,2.5,15,0.00,,---,0.00,VWS V14.01,2013-05-02 23:00:00,
2013-05-02 17:05:00,62.6,14.3,30.25,SW,225,2.5,2.5,15,0.00,,---,0.00,VWS V14.01,2013-05-02 23:05:00,
2013-05-02 17:10:00,62.8,14.5,30.25,West,270,4.0,4.0,15,0.00,,---,0.00,VWS V14.01,2013-05-02 23:10:00,
2013-05-02 17:15:00,62.5,14.2,30.26,NE,45,3.1,3.1,15,0.00,,---,0.00,VWS V14.01,2013-05-02 23:15:00,
2013-05-02 17:20:00,62.3,14.1,30.26,NE,45,3.1,3.1,15,0.00,,---,0.00,VWS V14.01,2013-05-02 23:20:00,
2013-05-02 17:25:00,63.2,14.8,30.25,WNW,292,4.5,4.5,15,0.00,,---,0.00,VWS V14.01,2013-05-02 23:25:00,
2013-05-02 17:30:00,61.9,13.8,30.25,NW,315,5.1,5.1,15,0.00,,---,0.00,VWS V14.01,2013-05-02 23:30:00,
2013-05-02 17:35:00,62.1,13.9,30.25,WSW,248,1.8,1.8,15,0.00,,---,0.00,VWS V14.01,2013-05-02 23:35:00,
2013-05-02 17:40:00,62.6,14.3,30.25,SSE,158,1.6,1.6,15,0.00,,---,0.00,VWS V14.01,2013-05-02 23:40:00,
2013-05-02 17:45:00,63.4,15.0,30.25,SSE,158,1.3,1.3,15,0.00,,---,0.00,VWS V14.01,2013-05-02 23:45:00,
2013-05-02 17:50:00,63.0,14.6,30.25,SW,225,2.7,2.7,15,0.00,,---,0.00,VWS V14.01,2013-05-02 23:50:00,
2013-05-02 17:55:00,64.1,14.0,30.25,NW,315,2.5,2.5,14,0.00,,---,0.00,VWS V14.01,2013-05-02 23:55:00,
2013-05-02 18:00:00,62.6,14.3,30.25,WNW,292,0.2,2.2,15,0.00,,---,0.00,VWS V14.01,2013-05-03 00:00:00,
2013-05-02 18:05:00,63.0,13.1,30.25,SSW,202,4.0,4.9,14,0.00,,---,0.00,VWS V14.01,2013-05-03 00:05:00,
2013-05-02 18:10:00,62.3,14.1,30.25,SW,225,2.7,2.7,15,0.00,,---,0.00,VWS V14.01,2013-05-03 00:10:00,
2013-05-02 18:15:00,62.8,12.9,30.25,SW,225,2.2,2.5,14,0.00,,---,0.00,VWS V14.01,2013-05-03 00:15:00,
2013-05-02 18:20:00,62.8,14.5,30.25,SSE,158,0.9,1.3,15,0.00,,---,0.00,VWS V14.01,2013-05-03 00:20:00,
2013-05-02 18:25:00,63.0,14.6,30.25,South,180,1.6,1.6,15,0.00,,---,0.00,VWS V14.01,2013-05-03 00:25:00,
2013-05-02 18:30:00,62.6,12.8,30.25,SSE,158,1.3,1.8,14,0.00,,---,0.00,VWS V14.01,2013-05-03 00:30:00,
2013-05-02 18:35:00,62.5,14.2,30.25,ESE,112,0.4,1.1,15,0.00,,---,0.00,VWS V14.01,2013-05-03 00:35:00,
2013-05-02 18:40:00,62.6,11.1,30.25,SSE,158,0.4,0.9,13,0.00,,---,0.00,VWS V14.01,2013-05-03 00:40:00,
2013-05-02 18:45:00,62.6,12.8,30.25,SE,135,1.1,1.8,14,0.00,,---,0.00,VWS V14.01,2013-05-03 00:45:00,
2013-05-02 18:50:00,63.0,11.4,30.25,SSE,158,1.3,1.8,13,0.00,,---,0.00,VWS V14.01,2013-05-03 00:50:00,
2013-05-02 18:55:00,62.1,13.9,30.25,ESE,112,0.4,1.1,15,0.00,,---,0.00,VWS V14.01,2013-05-03 00:55:00,
2013-05-02 19:00:00,61.9,13.8,30.24,SSE,158,1.8,1.8,15,0.00,,---,0.00,VWS V14.01,2013-05-03 01:00:00,
2013-05-02 19:04:00,61.4,13.4,30.25,SE,135,1.1,4.3,15,0.00,,---,0.00,VWS V14.01,2013-05-03 01:04:00,
2013-05-02 19:09:00,60.1,13.8,30.24,SSE,158,4.5,6.9,16,0.00,,---,0.00,VWS V14.01,2013-05-03 01:09:00,
2013-05-02 19:14:00,58.7,12.6,30.24,ESE,112,6.0,7.2,16,0.00,,---,0.00,VWS V14.01,2013-05-03 01:14:00,
2013-05-02 19:19:00,57.4,13.0,30.24,ESE,112,9.8,9.8,17,0.00,,---,0.00,VWS V14.01,2013-05-03 01:19:00,
2013-05-02 19:24:00,56.7,12.4,30.25,SE,135,6.3,6.3,17,0.00,,---,0.00,VWS V14.01,2013-05-03 01:24:00,
2013-05-02 19:29:00,56.3,12.1,30.25,ESE,112,4.7,8.5,17,0.00,,---,0.00,VWS V14.01,2013-05-03 01:29:00,
2013-05-02 19:34:00,55.6,12.8,30.25,SE,135,4.5,4.5,18,0.00,,---,0.00,VWS V14.01,2013-05-03 01:34:00,
2013-05-02 19:39:00,54.9,12.2,30.24,SE,135,8.1,8.1,18,0.00,,---,0.00,VWS V14.01,2013-05-03 01:39:00,
2013-05-02 19:44:00,54.4,11.8,30.25,ESE,112,8.7,8.7,18,0.00,,---,0.00,VWS V14.01,2013-05-03 01:44:00,
2013-05-02 19:49:00,53.6,13.5,30.25,ESE,112,3.4,3.4,20,0.00,,---,0.00,VWS V14.01,2013-05-03 01:49:00,
2013-05-02 19:54:00,53.3,13.3,30.25,ESE,112,9.4,9.4,20,0.00,,---,0.00,VWS V14.01,2013-05-03 01:54:00,
2013-05-02 19:59:00,52.9,12.9,30.25,SE,135,8.3,8.3,20,0.00,,---,0.00,VWS V14.01,2013-05-03 01:59:00,
2013-05-02 20:04:00,52.4,12.5,30.25,ESE,112,10.1,10.1,20,0.00,,---,0.00,VWS V14.01,2013-05-03 02:04:00,
2013-05-02 20:09:00,52.0,13.3,30.25,SE,135,5.8,5.8,21,0.00,,---,0.00,VWS V14.01,2013-05-03 02:09:00,
2013-05-02 20:14:00,51.5,12.9,30.25,SE,135,5.8,5.8,21,0.00,,---,0.00,VWS V14.01,2013-05-03 02:14:00,
2013-05-02 20:19:00,51.3,12.7,30.25,SE,135,6.5,6.5,21,0.00,,---,0.00,VWS V14.01,2013-05-03 02:19:00,
2013-05-02 20:24:00,50.9,13.4,30.25,ESE,112,5.4,5.4,22,0.00,,---,0.00,VWS V14.01,2013-05-03 02:24:00,
2013-05-02 20:29:00,50.4,13.0,30.25,ESE,112,10.7,10.7,22,0.00,,---,0.00,VWS V14.01,2013-05-03 02:29:00,
2013-05-02 20:34:00,50.2,12.8,30.25,East,90,9.6,9.6,22,0.00,,---,0.00,VWS V14.01,2013-05-03 02:34:00,
2013-05-02 20:39:00,49.9,13.6,30.26,SE,135,6.0,6.0,23,0.00,,---,0.00,VWS V14.01,2013-05-03 02:39:00,
2013-05-02 20:44:00,49.5,13.2,30.26,ESE,112,5.8,5.8,23,0.00,,---,0.00,VWS V14.01,2013-05-03 02:44:00,
2013-05-02 20:49:00,49.3,13.1,30.26,SE,135,11.9,11.9,23,0.00,,---,0.00,VWS V14.01,2013-05-03 02:49:00,
2013-05-02 20:54:00,49.1,12.9,30.25,ESE,112,8.3,10.1,23,0.00,,---,0.00,VWS V14.01,2013-05-03 02:54:00,
2013-05-02 20:59:00,49.0,13.8,30.26,East,90,7.6,7.6,24,0.00,,---,0.00,VWS V14.01,2013-05-03 02:59:00,
2013-05-02 21:04:00,48.4,13.3,30.26,SE,135,7.6,7.6,24,0.00,,---,0.00,VWS V14.01,2013-05-03 03:04:00,
2013-05-02 21:09:00,48.1,13.0,30.26,ESE,112,9.4,9.4,24,0.00,,---,0.00,VWS V14.01,2013-05-03 03:09:00,
2013-05-02 21:14:00,47.7,13.6,30.26,ESE,112,5.6,5.6,25,0.00,,---,0.00,VWS V14.01,2013-05-03 03:14:00,
2013-05-02 21:19:00,47.5,13.4,30.26,ESE,112,12.8,12.8,25,0.00,,---,0.00,VWS V14.01,2013-05-03 03:19:00,
2013-05-02 21:24:00,47.3,13.3,30.27,ESE,112,6.9,6.9,25,0.00,,---,0.00,VWS V14.01,2013-05-03 03:24:00,
2013-05-02 21:29:00,47.2,13.2,30.27,ESE,112,11.0,11.0,25,0.00,,---,0.00,VWS V14.01,2013-05-03 03:29:00,
2013-05-02 21:34:00,47.0,13.0,30.27,SSE,158,12.1,12.1,25,0.00,,---,0.00,VWS V14.01,2013-05-03 03:34:00,
2013-05-02 21:39:00,46.6,14.4,30.27,ESE,112,8.1,8.1,27,0.00,,---,0.00,VWS V14.01,2013-05-03 03:39:00,
2013-05-02 21:44:00,46.4,14.2,30.27,East,90,6.9,6.9,27,0.00,,---,0.00,VWS V14.01,2013-05-03 03:44:00,
2013-05-02 21:49:00,46.4,14.2,30.27,SE,135,6.3,6.3,27,0.00,,---,0.00,VWS V14.01,2013-05-03 03:49:00,
2013-05-02 21:54:00,46.3,14.2,30.27,SE,135,9.2,9.2,27,0.00,,---,0.00,VWS V14.01,2013-05-03 03:54:00,
2013-05-02 21:59:00,46.1,14.0,30.27,SE,135,14.8,14.8,27,0.00,,---,0.00,VWS V14.01,2013-05-03 03:59:00,
2013-05-02 22:01:00,46.1,14.0,30.27,ESE,112,8.9,8.9,27,0.00,,---,0.00,VWS V14.01,2013-05-03 04:01:00,
2013-05-02 22:06:00,45.9,13.8,30.27,SE,135,10.5,10.5,27,0.00,,---,0.00,VWS V14.01,2013-05-03 04:06:00,
2013-05-02 22:11:00,45.7,13.6,30.27,SSE,158,10.5,10.5,27,0.00,,---,0.00,VWS V14.01,2013-05-03 04:11:00,
2013-05-02 22:16:00,45.7,13.6,30.27,ESE,112,11.9,11.9,27,0.00,,---,0.00,VWS V14.01,2013-05-03 04:16:00,
2013-05-02 22:21:00,45.7,13.6,30.27,ESE,112,10.5,10.5,27,0.00,,---,0.00,VWS V14.01,2013-05-03 04:21:00,
2013-05-02 22:26:00,45.4,13.4,30.27,ESE,112,7.6,7.6,27,0.00,,---,0.00,VWS V14.01,2013-05-03 04:26:00,
2013-05-02 22:31:00,45.2,14.1,30.27,SE,135,9.6,9.6,28,0.00,,---,0.00,VWS V14.01,2013-05-03 04:31:00,
2013-05-02 22:36:00,45.2,14.1,30.27,East,90,10.3,10.3,28,0.00,,---,0.00,VWS V14.01,2013-05-03 04:36:00,
2013-05-02 22:41:00,45.0,13.9,30.27,ESE,112,9.2,9.2,28,0.00,,---,0.00,VWS V14.01,2013-05-03 04:41:00,
2013-05-02 22:46:00,45.0,13.9,30.27,SE,135,12.1,12.1,28,0.00,,---,0.00,VWS V14.01,2013-05-03 04:46:00,
2013-05-02 22:51:00,45.0,13.9,30.27,ESE,112,8.7,8.7,28,0.00,,---,0.00,VWS V14.01,2013-05-03 04:51:00,
2013-05-02 22:56:00,44.8,13.7,30.27,East,90,9.4,9.4,28,0.00,,---,0.00,VWS V14.01,2013-05-03 04:56:00,
2013-05-02 23:01:00,44.8,13.7,30.27,ESE,112,7.4,7.4,28,0.00,,---,0.00,VWS V14.01,2013-05-03 05:01:00,
2013-05-02 23:06:00,44.6,13.5,30.28,SE,135,8.1,8.1,28,0.00,,---,0.00,VWS V14.01,2013-05-03 05:06:00,
2013-05-02 23:11:00,44.8,13.7,30.27,East,90,6.5,6.5,28,0.00,,---,0.00,VWS V14.01,2013-05-03 05:11:00,
2013-05-02 23:16:00,44.8,13.7,30.28,ESE,112,3.4,3.4,28,0.00,,---,0.00,VWS V14.01,2013-05-03 05:16:00,
2013-05-02 23:21:00,44.6,13.5,30.28,East,90,4.7,4.7,28,0.00,,---,0.00,VWS V14.01,2013-05-03 05:21:00,
2013-05-02 23:26:00,44.6,13.5,30.28,East,90,2.9,2.9,28,0.00,,---,0.00,VWS V14.01,2013-05-03 05:26:00,
2013-05-02 23:31:00,44.6,13.5,30.28,SE,135,3.1,3.1,28,0.00,,---,0.00,VWS V14.01,2013-05-03 05:31:00,
2013-05-02 23:36:00,44.6,13.5,30.28,ESE,112,0.4,0.4,28,0.00,,---,0.00,VWS V14.01,2013-05-03 05:36:00,
2013-05-02 23:41:00,44.6,13.5,30.28,East,90,0.2,0.2,28,0.00,,---,0.00,VWS V14.01,2013-05-03 05:41:00,
2013-05-02 23:46:00,44.5,13.4,30.29,East,90,4.0,4.0,28,0.00,,---,0.00,VWS V14.01,2013-05-03 05:46:00,
2013-05-02 23:51:00,44.6,13.5,30.29,ESE,112,2.9,2.9,28,0.00,,---,0.00,VWS V14.01,2013-05-03 05:51:00,
2013-05-02 23:56:00,44.6,13.5,30.29,SE,135,3.4,3.4,28,0.00,,---,0.00,VWS V14.01,2013-05-03 05:56:00,